[[{"header":{"parameterUnit":"m.s-1","parameterCategory":1,"la1":30.2991,"la2":30.254,"lo1":-89.0895,"lo2":-89.0444,"dy":0.0017,"dx":0.0017,"nx":28,"ny":28,"refTime":"2025-01-04T09:00:00:Z","depth":0,"parameterNumber":2,"parameterNumberName":"U-component_of_WINDS"},"data":[0,0,0,0,0,0,0,0,0,0,0,0,0,0,0,0,0,0,0,0,0,0,0,0,0,0,0,0,0,0,0,0,0,0,0,0,0,0,0,0,0,0,0,0,0,0,0,0,0,0,0,0,0,0,0,0,0,0,-5.8602,-5.8602,0,-5.8685,-5.8686,-5.8687,-5.8539,-5.8534,-5.853,-5.8525,-5.8614,-5.8621,-5.8628,0,0,0,0,0,0,0,0,0,0,0,0,0,-5.8319,-5.8325,-5.8601,-5.8603,-5.8604,-5.8684,-5.8686,-5.8687,-5.854,-5.8534,-5.8528,-5.8523,-5.8612,-5.862,-5.8628,0,0,0,0,0,0,0,0,0,0,0,0,0,-5.8426,-5.8327,-5.8601,-5.854,-5.8535,-5.8684,-5.8686,-5.8687,-5.8542,-5.8534,-5.8527,-5.852,-5.8609,-5.8619,-5.8629,-5.8843,0,0,-5.8661,-5.8666,0,0,0,0,0,0,0,0,-5.8421,-5.8437,-5.8548,-5.8545,-5.854,-5.8594,-5.8619,-5.8739,-5.8543,-5.8539,-5.8525,-5.8516,-5.8614,-5.8623,-5.8655,-5.8847,-5.8851,-5.8662,-5.8669,-5.8673,-5.8676,0,0,0,0,0,0,0,-5.8413,-5.8433,-5.8634,-5.855,-5.8545,-5.851,-5.8517,-5.8641,-5.8617,-5.8539,-5.8529,-5.854,-5.861,-5.8645,-5.8656,-5.8852,-5.8662,-5.8671,-5.8678,-5.8682,-5.9224,-5.9232,0,0,0,0,0,0,-5.8413,-5.8427,-5.8632,-5.8637,-5.846,-5.8521,-5.8529,-5.8584,-5.8615,-5.8613,-5.8547,-5.8533,-5.8631,-5.8644,-5.8659,-5.8911,-5.8673,-5.8683,-5.8689,-5.9216,-5.9226,-5.9235,0,0,0,0,0,0,-5.8408,-5.8433,-5.8628,-5.8529,-5.8552,-5.8534,-5.8597,-5.859,-5.8625,-5.8621,-5.8616,-5.8587,-5.8626,-5.8644,-5.8798,-5.8912,-5.8688,-5.8697,-5.9207,-5.9219,-5.923,-5.9418,0,0,0,0,0,0,-5.84,-5.8432,-5.8512,-5.8532,-5.8557,-5.8766,-5.8604,-5.8597,-5.8643,-5.8626,-5.8658,-5.8656,-5.8621,-5.8783,-5.8809,-5.8923,-5.8705,-5.9196,-5.9212,-5.9227,-5.9401,-5.9435,-5.9464,0,0,0,0,0,-5.839,-5.8562,-5.8516,-5.8542,-5.8657,-5.8773,-5.8787,-5.8743,-5.8653,-5.8734,-5.8731,-5.8655,-5.8896,-5.88,-5.8827,-5.8946,-5.9189,-5.9208,-5.9225,-5.9387,-5.9428,-5.9463,0,0,0,0,0,0,-5.8556,-5.8563,-5.8513,-5.8696,-5.8735,-5.8747,-5.8848,-5.8787,-5.8853,-5.8835,-5.8778,-5.8787,-5.8953,-5.8965,-5.8858,-5.9155,-5.9027,-5.9052,-5.9141,-5.918,-5.9211,-5.9204,-5.8714,0,0,0,0,0,-5.8613,-5.8705,-5.8707,-5.8868,-5.889,-5.8867,-5.8915,-5.8878,-5.8916,-5.8932,-5.8941,-5.8982,-5.9067,-5.9124,-5.9202,-5.9402,-5.9408,-5.9498,-5.9529,-5.9554,-5.9577,-5.9685,-5.9725,-5.9295,-5.9295,-5.9294,0,0,-5.8733,-5.8749,-5.8811,-5.8902,-5.8927,-5.9026,-5.8881,-5.8991,-5.9063,-5.8949,-5.9095,-5.9103,-5.9145,-5.9324,-5.9403,-5.9339,-5.9697,-5.9578,-5.9598,-5.9606,-5.9708,-5.9748,-5.9785,-5.9307,-5.9305,-5.9303,0,0,-5.9002,-5.9023,-5.9159,-5.9188,-5.9228,-5.9212,-5.9245,-5.9267,-5.9268,-5.9413,-5.933,-5.9416,-5.9563,-5.9597,-5.9634,-5.9917,-5.985,-5.9944,-6.0107,-6.0213,-6.0247,-6.0277,-6.0378,-6.0416,-5.9966,-5.9967,-5.9967,0,-5.9146,-5.9289,-5.9238,-5.9353,-5.9397,-5.9297,-5.9436,-5.9466,-5.9531,-5.9564,-5.9491,-5.9674,-5.9696,-5.9881,-5.995,-5.9983,-6.002,-5.994,-6.0246,-6.0275,-6.0302,-6.0399,-6.0437,-5.9978,-5.9976,-5.9975,-5.9974,0,-5.9465,-5.9566,-5.9672,-5.9736,-5.9791,-5.9918,-5.9887,-5.9949,-5.9907,-5.9899,-6.0049,-6.0071,-6.0152,-6.0193,-6.0154,-6.0375,-6.0334,-6.0255,-6.0125,-6.0355,-6.0445,-6.0482,-5.9994,-5.999,-5.9986,-5.9984,0,0,-5.984,-5.9874,-5.9914,-5.9942,-5.998,-6.0058,-6.0181,-6.0259,-6.0314,-6.0362,-6.0465,-6.0592,-6.0519,-6.0561,-6.0525,-6.0618,-6.0842,-6.0527,-6.0527,-6.0586,-6.1088,-6.1147,-6.1191,-6.0798,-6.0804,-6.081,-6.1084,0,-6.0108,-6.0318,-6.0276,-6.0483,-6.0576,-6.0483,-6.059,-6.0626,-6.0622,-6.0701,-6.0696,-6.0788,-6.0684,-6.0709,-6.0797,-6.0796,-6.0942,-6.0776,-6.0894,-6.0899,-6.0886,-6.1237,-6.13,-6.1558,-6.1119,-6.1125,-6.1129,0,-6.0447,-6.0508,-6.0724,-6.0748,-6.0785,-6.0882,-6.0951,-6.1028,-6.1067,-6.1057,-6.1105,-6.1051,-6.1175,-6.1044,-6.1215,-6.1103,-6.1148,-6.1156,-6.1165,-6.1174,-6.1028,-6.1257,-6.1639,-6.1678,-6.1184,-6.1179,-6.1175,0,-6.07,-6.0835,-6.0982,-6.1009,-6.1041,-6.1111,-6.1128,-6.1159,-6.121,-6.127,-6.1302,-6.1378,-6.1419,-6.1479,-6.1448,-6.1355,-6.1625,-6.1491,-6.1621,-6.1623,-6.1682,-6.1679,-6.2078,-6.1712,-6.1711,-6.1711,-6.171,0,-6.1003,-6.1139,-6.1096,-6.1187,-6.1337,-6.1287,-6.1438,-6.1444,-6.1473,-6.1564,-6.1489,-6.1576,-6.1529,-6.1614,-6.159,-6.1736,-6.1755,-6.1751,-6.1744,-6.1758,-6.1759,-6.1788,-6.1769,-6.1721,-6.1719,-6.1717,-6.1715,0,-6.131,-6.1287,-6.1441,-6.1458,-6.1466,-6.1576,-6.1591,-6.1676,-6.1666,-6.1782,-6.1807,-6.1792,-6.1887,-6.1862,-6.1966,-6.195,-6.2134,-6.2104,-6.2121,-6.2113,-6.2246,-6.2234,-6.2677,-6.2733,-6.2331,-6.2335,-6.2338,0,-6.1505,-6.1608,-6.1636,-6.1691,-6.1713,-6.1803,-6.1853,-6.1809,-6.1865,-6.1919,-6.1998,-6.2086,-6.2155,-6.2312,-6.2312,-6.2391,-6.2362,-6.2512,-6.2374,-6.2386,-6.2365,-6.2359,-6.237,-6.254,-6.2544,-6.2548,-6.2551,0,-6.1854,-6.1838,-6.1913,-6.1986,-6.2048,-6.2103,-6.2151,-6.2201,-6.216,-6.2228,-6.2323,-6.2377,-6.2483,-6.2572,-6.2645,-6.2663,-6.2602,-6.2595,-6.2629,-6.2645,-6.2651,-6.265,-6.2196,-6.2585,-6.2581,-6.2579,-6.2577,-6.2576,-6.2112,-6.2199,-6.2232,-6.2319,-6.235,-6.2397,-6.2478,-6.2479,-6.2558,-6.264,-6.2609,-6.272,-6.2758,-6.285,-6.2877,-6.2964,-6.2907,-6.2957,-6.297,-6.2983,-6.3,-6.2638,-6.2977,-6.2976,-6.2975,-6.2975,-6.2974,0,-6.2457,-6.2474,-6.2554,-6.2624,-6.2693,-6.2627,-6.2677,-6.274,-6.2838,-6.2878,-6.2947,-6.3058,-6.3145,-6.3151,-6.3233,-6.3302,-6.3276,-6.3325,-6.3319,-6.3325,-6.3046,-6.3008,-6.3344,-6.3344,-6.3344,-6.3344,-6.3344,-6.3344,-6.2645,-6.2788,-6.2777,-6.2936,-6.2952,-6.3059,-6.3093,-6.3137,-6.3169,-6.3296,-6.3367,-6.3371,-6.3398,-6.3481,-6.3558,-6.3558,-6.3592,-6.3652,-6.3642,-6.3381,-6.3344,-6.3309,-6.3273,-6.366,-6.3661,-6.3913,-6.3916,-6.3918]},{"header":{"parameterUnit":"m.s-1","parameterCategory":1,"la1":30.2991,"la2":30.254,"lo1":-89.0895,"lo2":-89.0444,"dy":0.0017,"dx":0.0017,"nx":28,"ny":28,"refTime":"2025-01-04T09:00:00:Z","depth":0,"parameterNumber":3,"parameterNumberName":"V-component_of_WINDS"},"data":[0,0,0,0,0,0,0,0,0,0,0,0,0,0,0,0,0,0,0,0,0,0,0,0,0,0,0,0,0,0,0,0,0,0,0,0,0,0,0,0,0,0,0,0,0,0,0,0,0,0,0,0,0,0,0,0,0,0,-0.5875,-0.5875,0,-0.5889,-0.589,-0.589,-0.591,-0.591,-0.5911,-0.5911,-0.5925,-0.5925,-0.5925,0,0,0,0,0,0,0,0,0,0,0,0,0,-0.5863,-0.5863,-0.5875,-0.5875,-0.5875,-0.5889,-0.589,-0.589,-0.591,-0.591,-0.5911,-0.5911,-0.5925,-0.5925,-0.5925,0,0,0,0,0,0,0,0,0,0,0,0,0,-0.5872,-0.5863,-0.5875,-0.5887,-0.5888,-0.5889,-0.589,-0.589,-0.591,-0.591,-0.5911,-0.5911,-0.5925,-0.5925,-0.5925,-0.5915,0,0,-0.5925,-0.5926,0,0,0,0,0,0,0,0,-0.5871,-0.5872,-0.5885,-0.5886,-0.5888,-0.5898,-0.589,-0.5898,-0.591,-0.5902,-0.5911,-0.5911,-0.5916,-0.5917,-0.5918,-0.5916,-0.5917,-0.5925,-0.5926,-0.5926,-0.5926,0,0,0,0,0,0,0,-0.5871,-0.5872,-0.5881,-0.5885,-0.5887,-0.5891,-0.5893,-0.5892,-0.5906,-0.5902,-0.5904,-0.5905,-0.5917,-0.5918,-0.5919,-0.5917,-0.5925,-0.5926,-0.5926,-0.5926,-0.5905,-0.5904,0,0,0,0,0,0,-0.5868,-0.5871,-0.588,-0.5881,-0.5881,-0.5891,-0.5893,-0.5894,-0.5906,-0.5908,-0.5905,-0.5906,-0.5918,-0.5919,-0.5919,-0.5907,-0.5926,-0.5926,-0.5926,-0.5905,-0.5904,-0.5904,0,0,0,0,0,0,-0.5868,-0.5869,-0.588,-0.5876,-0.5878,-0.5891,-0.5892,-0.5894,-0.5896,-0.5908,-0.591,-0.5904,-0.5918,-0.5919,-0.5916,-0.5907,-0.5926,-0.5926,-0.5906,-0.5905,-0.5904,-0.5882,0,0,0,0,0,0,-0.5868,-0.5869,-0.5866,-0.5876,-0.5878,-0.5876,-0.5892,-0.5894,-0.5896,-0.5898,-0.5907,-0.5909,-0.5919,-0.5915,-0.5916,-0.5908,-0.5926,-0.5907,-0.5905,-0.5904,-0.5884,-0.5881,-0.5878,0,0,0,0,0,-0.5867,-0.586,-0.5866,-0.5867,-0.5875,-0.5876,-0.5877,-0.5888,-0.5895,-0.5892,-0.5899,-0.5909,-0.5908,-0.5915,-0.5915,-0.5908,-0.5907,-0.5906,-0.5904,-0.5885,-0.5882,-0.5878,0,0,0,0,0,0,-0.5849,-0.5861,-0.5868,-0.5864,-0.5869,-0.5879,-0.5876,-0.5884,-0.5887,-0.5888,-0.5901,-0.5903,-0.5898,-0.5902,-0.5909,-0.5897,-0.5909,-0.5908,-0.5894,-0.5891,-0.5888,-0.5887,-0.5926,0,0,0,0,0,-0.5844,-0.5844,-0.5855,-0.5851,-0.5852,-0.5863,-0.5864,-0.5872,-0.5877,-0.5879,-0.5886,-0.5891,-0.5891,-0.5892,-0.5893,-0.5885,-0.5886,-0.5879,-0.5877,-0.5874,-0.5873,-0.5866,-0.5863,-0.5899,-0.5899,-0.5899,0,0,-0.5835,-0.5842,-0.5841,-0.5847,-0.5852,-0.585,-0.5865,-0.5864,-0.5863,-0.5879,-0.5876,-0.5881,-0.5887,-0.588,-0.5878,-0.5884,-0.5863,-0.5872,-0.587,-0.587,-0.5865,-0.5861,-0.5858,-0.5898,-0.5898,-0.5899,0,0,-0.5817,-0.5823,-0.5819,-0.5822,-0.5829,-0.5836,-0.5834,-0.5843,-0.5847,-0.5844,-0.5855,-0.5854,-0.5855,-0.5858,-0.5859,-0.584,-0.5848,-0.584,-0.5825,-0.5819,-0.5816,-0.5813,-0.5804,-0.5801,-0.5838,-0.5838,-0.5838,0,-0.5805,-0.5804,-0.5815,-0.5813,-0.5814,-0.5828,-0.5823,-0.5826,-0.5832,-0.5832,-0.5839,-0.5839,-0.5844,-0.5837,-0.5832,-0.5834,-0.5831,-0.5839,-0.5815,-0.5813,-0.5811,-0.5802,-0.5799,-0.5837,-0.5837,-0.5837,-0.5837,0,-0.5787,-0.5787,-0.5782,-0.5787,-0.5788,-0.5784,-0.5793,-0.5793,-0.58,-0.5805,-0.58,-0.5807,-0.5808,-0.5807,-0.5815,-0.5801,-0.5804,-0.5813,-0.5825,-0.5806,-0.5798,-0.5795,-0.5835,-0.5836,-0.5836,-0.5836,0,0,-0.576,-0.5769,-0.5767,-0.5769,-0.5775,-0.5775,-0.577,-0.5771,-0.577,-0.5773,-0.5769,-0.5768,-0.5775,-0.5777,-0.5785,-0.5779,-0.576,-0.5788,-0.5789,-0.5782,-0.5743,-0.5736,-0.5732,-0.5766,-0.5766,-0.5765,-0.5742,0,-0.5743,-0.5736,-0.5745,-0.5736,-0.5734,-0.5746,-0.5742,-0.5745,-0.575,-0.5748,-0.5753,-0.5752,-0.5763,-0.5763,-0.5759,-0.5764,-0.5753,-0.5766,-0.5761,-0.5761,-0.5758,-0.5728,-0.5721,-0.5699,-0.5739,-0.5739,-0.5738,0,-0.5722,-0.5723,-0.5714,-0.5719,-0.5718,-0.5715,-0.5715,-0.5714,-0.5716,-0.572,-0.572,-0.5729,-0.5723,-0.5735,-0.5727,-0.5736,-0.5734,-0.5736,-0.5736,-0.5735,-0.5748,-0.5725,-0.5692,-0.5688,-0.5734,-0.5735,-0.5735,0,-0.5701,-0.57,-0.5694,-0.5695,-0.5701,-0.5697,-0.57,-0.5703,-0.5702,-0.5702,-0.5701,-0.5701,-0.5701,-0.57,-0.5707,-0.5715,-0.5697,-0.571,-0.5699,-0.5698,-0.5694,-0.5694,-0.5659,-0.5695,-0.5695,-0.5695,-0.5695,0,-0.5681,-0.5674,-0.5684,-0.568,-0.5673,-0.5682,-0.5674,-0.5677,-0.5679,-0.5675,-0.5686,-0.5682,-0.5692,-0.5688,-0.5694,-0.5685,-0.5685,-0.5687,-0.5688,-0.5686,-0.5685,-0.5684,-0.5686,-0.5694,-0.5694,-0.5695,-0.5695,0,-0.5656,-0.5663,-0.5656,-0.5662,-0.5663,-0.5656,-0.5661,-0.5656,-0.5661,-0.5655,-0.5654,-0.5661,-0.5658,-0.5665,-0.5662,-0.5666,-0.5653,-0.5657,-0.5652,-0.5653,-0.564,-0.5641,-0.5602,-0.5597,-0.5637,-0.5637,-0.5637,0,-0.5642,-0.5637,-0.5641,-0.5639,-0.564,-0.5637,-0.5636,-0.5644,-0.5642,-0.5643,-0.5638,-0.5635,-0.5633,-0.5626,-0.563,-0.5627,-0.5631,-0.5618,-0.5631,-0.5627,-0.5629,-0.5629,-0.5627,-0.5615,-0.5614,-0.5614,-0.5614,0,-0.5616,-0.5619,-0.5617,-0.5615,-0.5613,-0.5612,-0.5612,-0.5609,-0.5618,-0.5615,-0.561,-0.5608,-0.5604,-0.5601,-0.5598,-0.56,-0.5607,-0.5609,-0.5606,-0.5603,-0.5599,-0.5599,-0.5643,-0.561,-0.5611,-0.5611,-0.5611,-0.5611,-0.5596,-0.5591,-0.5592,-0.5589,-0.5589,-0.5588,-0.5583,-0.5586,-0.5583,-0.558,-0.5585,-0.5578,-0.5579,-0.5577,-0.5577,-0.5571,-0.5577,-0.5573,-0.5572,-0.5571,-0.5568,-0.56,-0.5571,-0.5572,-0.5572,-0.5572,-0.5572,0,-0.5569,-0.557,-0.5566,-0.5565,-0.5561,-0.5568,-0.5568,-0.5564,-0.5558,-0.5558,-0.5555,-0.5548,-0.5544,-0.5547,-0.5543,-0.5538,-0.5541,-0.5536,-0.5536,-0.5536,-0.5564,-0.5566,-0.5534,-0.5534,-0.5534,-0.5534,-0.5534,-0.5534,-0.5555,-0.5546,-0.5549,-0.5539,-0.554,-0.5533,-0.5532,-0.553,-0.553,-0.5522,-0.5518,-0.552,-0.552,-0.5515,-0.5511,-0.5512,-0.5509,-0.5503,-0.5505,-0.5531,-0.5534,-0.5538,-0.554,-0.5503,-0.5503,-0.5477,-0.5477,-0.5477]}]]